Regional Weather Roundup
Issued by NWS

Home | Current Version | Previous Version | Graphics & Text | Print | Product List | Glossary On
Versions: 1 2 3 4 5 6 7 8 9 10 11 12 13 14 15 16 17 18 19 20 21 22 23 24 25 26 27 28 29 30 31 32 33 34 35 36 37 38 39 40 41 42 43 44 45 46 47 48 49 50
000
ASUS43 KMPX 080210
RWRMN
WEATHER ROUNDUP FOR MINNESOTA
NATIONAL WEATHER SERVICE TWIN CITIES/CHANHASSEN MN
900 PM CDT TUE JUL 07 2015


NOTE: "FAIR" INDICATES FEW OR NO CLOUDS BELOW 12,000 FEET WITH NO
SIGNIFICANT WEATHER AND/OR OBSTRUCTIONS TO VISIBILITY. N/A MEANS
CURRENT SKY AND/OR WEATHER CONDITIONS ARE NOT AVAILABLE.

MNZ060>063-068>070-080300-
   Twin Cities Metro

CITY           SKY/WX    TMP DP  RH WIND       PRES   REMARKS
TWIN CITIES    MOCLDY    67  46  47 NE7       30.10S
ST PAUL        PTCLDY    66  48  52 NE3       30.10S
CRYSTAL        PTCLDY    67  48  50 VRB5      30.09S
BLAINE         PTCLDY    68  48  49 CALM      30.10F
LAKEVILLE      PTCLDY    59  54  82 CALM      30.11S
EDEN PRAIRIE   PTCLDY    67  48  50 CALM      30.09S
SOUTH ST PAUL  PTCLDY    67  47  47 CALM      30.10S
LAKE ELMO      FAIR      64  50  59 CALM      30.11S
$$
MNZ001>005-007-008-013>017-022>024-027-028-080300-
   Northwest Minnesota

CITY           SKY/WX    TMP DP  RH WIND       PRES   REMARKS
BEMIDJI        CLEAR     64  47  53 SW5       30.07S
HALLOCK        CLEAR     63  54  72 S8        29.99S
ROSEAU         CLEAR     63  54  72 S6        30.02F
WARROAD        PTCLDY    64  54  68 CALM      30.03F
THIEF RVR FALL CLEAR     63  52  67 S6        30.04F
CROOKSTON      CLEAR     64  52  63 S7        30.04S
FOSSTON        CLEAR     61  46  59 CALM      30.07F
DETROIT LAKES  PTCLDY    64  46  52 SW5       30.09F
MOORHEAD       CLEAR     63  50  63 S6        30.07S
PARK RAPIDS    PTCLDY    63  49  60 SW5       30.08F
MAHNOMEN       FAIR      62  49  62 SW5       30.07S
$$
MNZ006-009>011-018-025>026-080300-
   North Central Minnesota

CITY           SKY/WX    TMP DP  RH WIND       PRES   REMARKS
BAUDETTE       CLEAR     63  49  60 SW5       30.04S
FLAG ISLAND    PTCLDY    66  50  55 SW7       30.00F
INTL FALLS     CLEAR     64  49  57 SW5       30.04S
WASKISH        CLEAR     63  48  59 S3        30.06S
BIG FORK       CLEAR     59  52  77 CALM      30.08S
LONGVILLE      CLEAR     57  52  82 CALM      30.09S
GRAND RAPIDS   CLEAR     57  48  72 CALM      30.09F
CRANE LAKE     CLEAR     55  52  88 S1        30.08R
COOK           CLEAR     61  50  67 CALM      30.08S
WALKER         FAIR      60  49  68 CALM      30.08S
$$
MNZ012-019>021-037-080300-
   Northeast Minnesota

CITY           SKY/WX    TMP DP  RH WIND       PRES   REMARKS
DULUTH         CLEAR     64  48  56 SW3       30.09S
ELY            CLEAR     61  46  59 CALM      30.08S
HIBBING        CLEAR     57  50  77 CALM      30.08S
EVELETH        CLEAR     63  45  51 SW5       30.10S
DULUTH HARBOR  CLEAR     70  52  52 S9        30.08S
TWO HARBORS    CLEAR     63  54  72 W3        30.07S
SILVER BAY     CLEAR     59  52  77 CALM      30.07S
GRAND MARAIS     N/A     53  47  79 W3        30.08R
G MARAIS ARPRT CLEAR     55  43  62 S6        30.11S
$$
MNZ029>031-032-039>041-046>048-054>057-064-080300-
   West Central Minnesota

CITY           SKY/WX    TMP DP  RH WIND       PRES   REMARKS
FERGUS FALLS   CLEAR     64  50  59 S5        30.08S
WHEATON        CLEAR     61  48  63 S6        30.09S
MORRIS         CLEAR     64  55  72 S5        30.08F
ALEXANDRIA     CLEAR     64  47  53 S5        30.10F
ELBOW LAKE     FAIR      61  51  69 S5        30.08F
WADENA         PTCLDY    63  48  59 CALM      30.09S
GLENWOOD       CLEAR     63  52  67 SE5       30.10F
APPLETON       CLEAR     64  52  63 CALM      30.09S
BENSON         CLEAR     63  52  67 CALM      30.10S
ORTONVILLE     CLEAR     63  50  63 SE3       30.08F
MADISON        PTCLDY    63  54  72 SE5       30.10S
WILLMAR        FAIR      64  54  68 CALM      30.11F
$$
MNZ033>034-036-042>043-049>051-058-059-080300-
   Central Minnesota

CITY           SKY/WX    TMP DP  RH WIND       PRES   REMARKS
ST CLOUD       CLEAR     61  54  77 CALM      30.10F
SAUK CENTRE    FAIR      61  54  78 S5        30.10F
PAYNESVILLE    CLEAR     60  51  71 CALM      30.11S
AITKIN         CLEAR     59  52  77 CALM      30.09S
PINE RIVER     PTCLDY    63  52  67 CALM      30.12S
BRAINERD       PTCLDY    60  51  72 CALM      30.10S
STAPLES        PTCLDY    63  46  55 CALM      30.09S
LONG PRAIRIE   FAIR      59  52  77 CALM      30.10F
LITTLE FALLS   CLEAR     61  48  63 CALM      30.10F
LITCHFIELD     PTCLDY    64  52  63 CALM      30.11F
BUFFALO        CLEAR     65  53  64 CALM      30.11F
MAPLE LAKE     CLEAR     63  52  68 CALM      30.11F
$$
MNZ037-044-045-052-053-080300-
   East Central Minnesota

CITY           SKY/WX    TMP DP  RH WIND       PRES   REMARKS
PRINCETON      CLEAR     63  52  67 CALM      30.11S
MORA           CLEAR     61  48  63 CALM      30.13R
CAMBRIDGE      CLEAR     64  52  63 CALM      30.09S
RUSH CITY      CLEAR     59  55  86 CALM      30.11S
MOOSE LAKE     CLEAR     57  52  82 CALM      30.08S
HINCKLEY       FAIR      63  55  77 CALM      30.10S
CLOQUET        CLEAR     64  46  52 SW3       30.09S
MCGREGOR       CLEAR     63  50  63 CALM      30.09F
$$
MNZ071>073-080-081-089-090-097-098-080300-
   Southwest Minnesota

CITY           SKY/WX    TMP DP  RH WIND       PRES   REMARKS
MONTEVIDEO     PTCLDY    64  52  63 S3        30.11F
GRANITE FALLS  PTCLDY    65  51  62 CALM      30.11F
CANBY          MOCLDY    62  52  70 SE5       30.11F
MARSHALL       MOCLDY    64  46  52 SE3       30.10S
REDWOOD FALLS  PTCLDY    63  50  62 SE5       30.10F
OLIVIA         PTCLDY    61  46  59 CALM      30.10F
PIPESTONE      MOCLDY    63  52  67 SE3       30.11S
WINDOM         PTCLDY    61  52  72 CALM      30.12S
WORTHINGTON    PTCLDY    59  50  72 E6        30.12S
JACKSON        PTCLDY    59  54  82 NE5       30.13S
TRACY          PTCLDY    62  54  75 CALM      30.12S
SLAYTON        PTCLDY    59  53  79 CALM      30.13S
$$
MNZ065>067-074>077-082>085-091>093-080300-
   South Central Minnesota

CITY           SKY/WX    TMP DP  RH WIND       PRES   REMARKS
MANKATO        PTCLDY    64  48  55 E5        30.11S
NEW ULM        PTCLDY    64  48  55 CALM      30.11S
ST JAMES         N/A     63  55  77 CALM      30.12F
FAIRMONT       PTCLDY    61  48  63 NE5       30.11F
GLENCOE        PTCLDY    63  55  74 CALM      30.10F
FARIBAULT      CLEAR     61  55  82 CALM      30.11F
OWATONNA       CLEAR     63  50  63 CALM      30.11F
WASECA         CLEAR     59  54  82 E3        30.13R
ALBERT LEA     PTCLDY    63  52  67 NE3       30.12R
$$
MNZ078>079-086>088-094>096-080300-
   Southeast Minnesota

CITY           SKY/WX    TMP DP  RH WIND       PRES   REMARKS
ROCHESTER      CLEAR     62  49  62 E3        30.12S
RED WING       CLEAR     61  54  77 N5        30.09S
STANTON        CLEAR     63  55  77 CALM      30.10S
DODGE CENTER   CLEAR     61  54  77 CALM      30.12S
WINONA         CLEAR     63  52  67 CALM      30.10S
AUSTIN         CLEAR     63  52  67 CALM      30.11S
PRESTON        CLEAR     62  49  62 SE3       30.12S
$$
ABBREVIATIONS USED IN REMARKS
   TC - TEMPERATURES IN CELSIUS
  WCI - WIND CHILL INDEX
   HX - HEAT INDEX
  VSB - VISIBILITY
$$


USA.gov is the U.S. government's official web portal to all federal, state and local government web resources and services.